Погода в Куябе

Бразилия     15°36′44″S   56°03′20″W
темп.,
°C
ветер,
м/с
пор.,
м/с
влажн.,
%
обл.,
%
осадки,
мм/ч
давл.,
гПа
погр.,
м
27 февраля, сб
сб2723:00+23ссв399373 1.5 1009276
02:00+22ссв289482 1.8 1008295
05:00+22ссв2494100 0.0 1009152
08:00+25ссв478482 0.0 1010504
11:00+30с346632 0.0 1009974
14:00+31с336547 1.6 10061047
17:00+28сз128194 1.9 1005244
20:00+24св229093 6.9 100624
28 февраля, вс
вс2823:00+23св12893 0.1 100824
02:00+23ссв12934 1.7 100629
05:00+22с11940 0.6 100725
08:00+25ссв36872 0.6 1008549
11:00+29ссв346741 0.0 1007876
14:00+32с016043 0.1 10041248
17:00+28св358349 2.0 1003169
20:00+24св4119039 2.7 1005328
1 марта, пн
пн123:00+23ссв41391100 0.0 1007571
02:00+23ссв41189100 0.1 1006783
05:00+24ссв3986100 0.1 1007665
08:00+24ссв4986100 0.1 1008551
11:00+24ссв61183100 0.1 1008723
14:00+30ссз696067 0.2 10051363
17:00+28с48701 0.1 10051088
20:00+24ссв4118332 0.3 1007570
2 марта, вт
вт223:00+23ссв41086100 0.0 1009586
02:00+23ссв31088100 0.0 1008545
05:00+22с2992100 0.6 1009406
08:00+24ссв3884100 1.1 1011643
11:00+27с467783 1.1 1011888
14:00+29с357150 4.8 1007978
17:00+26с368849 6.1 1006440
20:00+24ссв249474 8.8 1010118
3 марта, ср
ср323:00+23ссв2594100 0.3 1012168
02:00+23ссв1497100 2.5 1011158
05:00+23ссв2395100 0.6 1011115
08:00+24ссв2591100 1.1 1014396
11:00+28с358166 3.6 1013816
14:00+30с346753 5.4 10101028
17:00+29ссв23745 0.3 1008394
20:00+25с228542 0.4 101136